sat.trackr.live / text

‹ back to catalog

STARLINK-35438

NORAD 66347 · 2025-253AE

PAYLOAD ACTIVE UNKNOWN

§ Identity

Operator
Country
US
Launch date
2025-11-06
Launch site
AFETR
Launch vehicle
Mass (kg)
RCS (m²)

Purposes: comms

External: N2YO · Heavens-Above · Gunter

§ Orbital elements

Epoch: 2026-09-20T02:53:34.183392Z

Period
94.27 min
Inclination
43.0012°
Eccentricity
0.0001142
Mean motion
15.27561488 rev/d
Perigee alt
482.3 km
Apogee alt
483.9 km
Semi-major
6,861.2 km
B*
4.8045e-4
RAAN
194.1555°
Arg perigee
262.1141°
Mean anomaly
97.9581°
Rev number
4,998

§ Raw data

STARLINK-354381 66347U 25253AE  26263.12053453  .00012975  00000+0  48045-3 0  99922 66347  43.0012 194.1555 0001142 262.1141  97.9581 15.27561488 49989

JSON: /api/v1/satellites/66347 · /tle

For live sub-satellite position, see the globe view (requires WebGL).

§ Visibility from observer

Set your observer location to see the next 7 days of passes ≥ 10°. The values pass through the URL so the page stays shareable.

No JS? Fill the form by hand. The geolocation button needs JavaScript.